Flag for Estonia Weather past 2 weeks in Tallinn, Estonia

Now
32 °F

Passing clouds.


Feels Like: 26 °F
Forecast: 28 / 33 °F
Wind: 7 mph from Southwest

Location: Tallinn

Current Time: Dec 22, 2014 at 3:45:26 AM

Latest Report: Dec 22, 2014 at 3:20 AM


Visibility: N/A

Pressure: 29.42 "Hg

Humidity: 93%

Dew point: 30 °F

Location of TallinnLocation

Historic Weather in Tallinn — Graph

°F

Tallinn temperature yesterday

Maximum temperature yesterday: 36 °F (at 3:20 AM)
Minimum temperature yesterday: 34 °F (at 12:20 AM)
Average temperature yesterday: 35 °F

Past Weeks' High & Low Weather Summary

 TemperatureHumidityPressure
High43 °F (Dec 19, 2:50 PM)100% (Dec 7, 2:50 AM)30.09 "Hg (Dec 7, 2:50 AM)
Low32 °F (Dec 10, 10:50 PM)60% (Dec 21, 12:20 PM)28.71 "Hg (Dec 13, 8:50 AM)
Average35 °F92%29.54 "Hg
* Reported Dec 7 2:20 AM — Dec 22 2:20 AM, Tallinn, Weather by CustomWeather, © 2014

Note: Actual official high and low records may vary slightly from our data, if they occured in-between our weather recording intervals... More about our weather records

Advertising

Tallinn weather history for previous 24 hours

 ConditionsComfort  
Time TempWeatherWind HumidityBarometerVisibility
2:20 AM
Dec 22
32 °FPassing clouds.5 mph93%29.45 "HgN/A
1:50 AM32 °FPassing clouds.6 mph93%29.45 "HgN/A
1:20 AM32 °FPartly cloudy.8 mph93%29.45 "HgN/A
12:50 AM32 °FPassing clouds.6 mph87%29.45 "HgN/A
12:20 AM32 °FPassing clouds.10 mph87%29.45 "HgN/A
11:20 PM
Dec 21
36 °FPartly cloudy.12 mph65%29.45 "HgN/A
10:50 PM36 °FPartly cloudy.14 mph70%29.45 "HgN/A
10:20 PM36 °FPassing clouds.13 mph65%29.45 "HgN/A
9:50 PM36 °FPartly cloudy.14 mph65%29.45 "HgN/A
9:20 PM36 °FPartly cloudy.16 mph65%29.45 "HgN/A
8:50 PM36 °FPartly cloudy.16 mph60%29.45 "HgN/A
8:20 PM36 °FPartly cloudy.15 mph60%29.45 "HgN/A
7:50 PM36 °FPassing clouds.18 mph60%29.45 "HgN/A
7:20 PM36 °FPassing clouds.14 mph70%29.45 "HgN/A
6:50 PM36 °FMostly cloudy.18 mph65%29.45 "HgN/A
6:20 PM36 °FPassing clouds.17 mph65%29.45 "HgN/A
5:50 PM36 °FPassing clouds.15 mph70%29.45 "HgN/A
5:20 PM36 °FPartly cloudy.13 mph65%29.45 "HgN/A
4:50 PM36 °FPassing clouds.20 mph65%29.45 "HgN/A
4:20 PM36 °FPassing clouds.20 mph65%29.45 "HgN/A
3:50 PM36 °FPassing clouds.21 mph65%29.42 "HgN/A
3:20 PM36 °FPassing clouds.23 mph70%29.42 "HgN/A
2:50 PM36 °FPartly sunny.25 mph70%29.42 "HgN/A
2:20 PM36 °FPartly sunny.26 mph70%29.42 "HgN/A
1:50 PM36 °FPartly sunny.23 mph70%29.42 "HgN/A
1:20 PM36 °FPartly sunny.20 mph65%29.39 "HgN/A
12:50 PM36 °FScattered clouds.21 mph65%29.42 "HgN/A
12:20 PM36 °FPartly sunny.21 mph60%29.42 "HgN/A
11:50 AM36 °FPartly sunny.18 mph65%29.42 "HgN/A
11:20 AM34 °FScattered clouds.17 mph70%29.42 "HgN/A
10:50 AM36 °FScattered clouds.15 mph65%29.39 "HgN/A
10:20 AM36 °FSnow flurries. Partly sunny.17 mph65%29.39 "HgN/A
9:50 AM36 °FPartly sunny.13 mph70%29.39 "HgN/A
9:20 AM36 °FBroken clouds.15 mph70%29.39 "HgN/A
8:50 AM36 °FPassing clouds.14 mph70%29.36 "HgN/A
8:20 AM36 °FPartly cloudy.17 mph70%29.36 "HgN/A
7:50 AM36 °FMostly cloudy.15 mph75%29.36 "HgN/A
7:20 AM36 °FMostly cloudy.15 mph70%29.33 "HgN/A
6:50 AM36 °FPassing clouds.16 mph70%29.33 "HgN/A
6:20 AM34 °FOvercast.18 mph75%29.33 "HgN/A
5:50 AM34 °FMostly cloudy.16 mph81%29.33 "HgN/A
5:20 AM34 °FMostly cloudy.16 mph87%29.30 "HgN/A
4:50 AM34 °FMostly cloudy.17 mph81%29.30 "HgN/A
4:20 AM36 °FOvercast.16 mph81%29.30 "HgN/A
3:50 AM36 °FOvercast.14 mph81%29.27 "HgN/A
3:20 AM36 °FMostly cloudy.14 mph81%29.27 "HgN/A
Weather by CustomWeather, © 2014

See weather overviewHow to use our weather pages